Temp
59 59 59 59 59 60 60 60 59 59 59 59 59 59 59 60 59 58 51 59 62 66 65 62 62 61 59 57 58 54 42 39 43 47 51 61 57 64 62 60 63 62 61 63 65
58 59 59 59 59 59 59 59 59 59 59 59 59 59 59 59 52 52 61 65 66 66 60 57 56 59 52 54 54 49 39 45 53 51 50 58 54 56 59 58 57 57 60 62 62
58 58 58 58 58 59 59 59 59 59 59 59 59 59 59 57 49 52 65 66 66 65 61 60 59 57 49 51 51 49 43 50 56 57 56 57 57 56 53 55 58 58 57 58 59
57 57 57 57 57 58 58 58 58 58 58 58 58 58 58 52 38 56 65 66 65 63 59 57 54 49 46 46 54 47 53 54 55 58 56 54 56 56 54 58 62 60 62 58 58
57 57 56 57 57 57 58 57 57 58 58 58 58 58 51 44 47 61 63 63 61 59 54 51 49 47 42 45 49 47 50 56 58 56 55 57 54 54 55 59 62 63 62 58 58
56 56 56 56 57 57 57 57 57 57 57 58 58 58 45 38 58 61 60 59 58 55 52 52 48 50 46 46 44 49 51 52 53 54 55 54 54 53 55 59 60 61 59 59 59
56 56 56 56 56 56 56 57 57 57 57 58 58 55 44 41 58 59 58 55 57 55 50 53 52 46 46 42 49 49 43 47 51 51 51 54 50 47 60 58 59 59 59 59 60
56 55 56 56 56 56 56 56 57 58 58 58 59 49 39 57 55 56 56 53 56 56 54 54 53 47 44 47 45 41 40 33 47 50 52 52 43 52 59 53 57 59 57 59 60
55 55 55 55 55 55 56 57 58 59 58 58 49 44 41 59 50 54 54 50 52 53 52 58 52 43 44 36 32 34 27 34 41 51 50 47 45 54 59 56 53 57 59 58 61
55 55 55 55 55 55 56 57 58 53 53 58 54 40 46 43 49 52 54 53 48 47 46 45 42 34 34 31 22 28 29 35 36 43 48 45 45 52 54 53 53 52 56 56 59
54 54 54 54 55 55 51 42 36 36 38 36 37 39 44 49 52 50 52 48 46 42 32 38 29 26 32 35 37 37 35 33 39 47 44 43 46 50 55 52 53 51 51 56 61
53 54 54 54 54 55 47 38 40 39 28 41 42 43 47 49 42 46 51 39 37 29 35 30 24 34 37 37 34 34 30 30 39 45 44 44 43 51 53 53 54 55 54 54 55
53 53 53 54 54 47 42 42 48 45 25 36 44 44 44 46 41 41 45 40 34 30 29 25 30 38 35 31 29 29 29 30 31 36 41 41 39 43 49 50 52 55 59 58 60
53 53 53 53 44 42 39 47 47 44 14 32 37 42 46 44 37 48 48 41 34 29 29 27 35 33 30 28 30 23 35 35 34 32 24 35 25 40 45 48 52 57 58 58 57
52 52 52 52 40 38 44 47 46 38 2 32 37 49 45 36 36 40 47 41 30 30 28 26 29 29 27 29 33 27 34 32 32 30 29 30 28 36 45 46 51 56 57 60 62
52 52 52 45 40 44 46 44 38 13 -1 25 36 32 31 35 36 40 40 42 40 30 31 29 36 32 31 34 35 36 31 31 30 28 20 29 30 31 39 45 49 55 58 58 61
52 52 49 47 36 45 43 33 12 5 26 23 26 30 28 28 31 32 29 26 19 10 17 26 27 33 36 30 33 31 22 14 13 17 18 33 29 34 41 47 51 54 57 61 61
52 51 46 46 43 43 36 17 2 8 22 31 28 28 23 28 27 27 24 17 27 24 17 11 11 27 34 27 23 23 23 14 11 13 20 32 27 34 47 52 55 56 56 58 55
50 38 38 41 45 40 23 5 7 22 29 26 25 20 18 26 23 22 21 20 27 27 9 10 16 30 31 33 32 23 21 29 21 22 18 26 35 44 49 50 51 52 56 56 55
36 34 36 43 43 32 16 14 13 31 30 29 16 17 15 20 16 15 17 26 25 30 26 14 13 27 31 34 34 29 33 22 22 13 12 23 26 30 39 45 49 52 52 56 58
32 23 37 43 38 22 8 4 24 34 32 19 18 20 17 12 16 17 19 26 28 28 30 24 17 20 27 23 24 26 25 25 26 24 16 17 25 41 44 41 41 43 45 45 48
23 15 41 44 18 5 8 12 32 29 31 27 22 18 21 21 9 9 18 18 29 29 18 27 19 15 18 29 33 28 26 26 19 18 24 24 27 43 44 42 43 42 44 44 45
24 22 36 38 9 7 15 17 24 25 27 25 20 24 15 19 14 11 9 21 25 18 15 23 18 10 13 24 31 23 28 30 27 24 20 18 24 47 45 43 41 41 43 43 44
23 16 23 30 27 19 13 15 13 26 24 29 27 27 17 13 19 14 18 23 28 24 34 29 17 15 9 15 22 17 23 25 26 19 20 24 28 34 42 43 41 40 41 41 42
24 14 20 11 14 15 22 18 18 18 25 23 16 20 15 16 9 15 20 19 27 31 23 23 12 17 20 22 21 20 22 23 20 23 18 28 28 35 41 43 41 40 42 43 40
15 16 20 16 23 16 21 15 21 24 21 21 19 25 21 15 19 17 21 23 21 27 22 18 12 18 14 21 20 18 23 25 25 27 27 28 30 39 45 44 43 40 41 41 41
26 32 23 21 11 12 14 21 23 26 27 28 26 24 23 25 29 29 29 27 26 23 22 20 10 8 6 15 16 14 23 25 26 29 28 25 34 41 41 40 39 39 39 39 41
MSLP
1025.76 1025.52 1025.22 1024.87 1024.51 1024.12 1023.71 1023.34 1023.00 1022.56 1022.05 1021.49 1021.00 1020.49 1019.96 1019.46 1018.53 1017.40 1017.98 1018.35 1017.76 1016.90 1015.93 1015.22 1014.36 1014.24 1013.73 1013.76 1013.35 1013.32 1014.23 1014.05 1013.05 1012.30 1011.01 1009.49 1009.40 1008.23 1007.62 1007.64 1008.07 1008.82 1009.45 1009.65 1010.74
1026.09 1025.84 1025.53 1025.06 1024.64 1024.21 1023.76 1023.43 1022.91 1022.49 1022.02 1021.39 1020.83 1020.34 1019.81 1019.29 1018.85 1018.34 1018.62 1018.10 1017.53 1016.96 1016.29 1015.75 1015.24 1014.60 1014.31 1013.75 1013.47 1013.66 1013.97 1013.10 1012.02 1011.31 1010.89 1010.12 1009.62 1009.06 1008.74 1008.53 1008.73 1009.91 1010.51 1010.67 1010.88
1026.50 1026.16 1025.73 1025.25 1024.76 1024.25 1023.83 1023.41 1022.96 1022.56 1022.15 1021.45 1020.79 1020.25 1019.54 1019.17 1018.95 1018.95 1018.41 1018.07 1017.59 1017.02 1016.64 1015.99 1015.30 1015.15 1014.86 1014.21 1013.68 1013.30 1013.07 1012.50 1011.52 1010.99 1010.86 1010.28 1009.73 1009.58 1009.28 1009.23 1009.00 1009.82 1011.01 1011.17 1011.20
1026.65 1026.25 1025.84 1025.49 1024.97 1024.38 1023.90 1023.40 1023.00 1022.70 1022.25 1021.65 1021.03 1020.44 1019.37 1018.94 1019.74 1019.12 1018.49 1017.96 1017.58 1017.16 1016.87 1016.43 1015.86 1015.52 1015.24 1014.84 1013.87 1013.46 1012.66 1012.19 1011.48 1011.11 1010.80 1010.43 1009.86 1009.57 1009.60 1009.23 1009.08 1009.46 1009.80 1011.00 1011.34
1026.87 1026.40 1026.03 1025.52 1024.98 1024.42 1023.84 1023.45 1023.01 1022.52 1022.10 1021.75 1021.19 1020.46 1019.86 1019.48 1020.14 1019.23 1018.62 1018.12 1017.63 1017.40 1017.20 1017.00 1016.77 1016.61 1016.28 1015.68 1014.72 1013.65 1012.95 1012.18 1011.51 1011.16 1010.76 1010.40 1010.25 1009.98 1009.44 1009.12 1009.00 1009.42 1009.68 1010.22 1010.80
1027.00 1026.51 1026.18 1025.71 1025.12 1024.48 1023.80 1023.25 1022.80 1022.22 1021.80 1021.45 1021.17 1020.68 1020.30 1020.21 1019.89 1019.46 1019.01 1018.61 1018.05 1017.79 1017.63 1017.40 1017.43 1017.23 1016.72 1015.91 1015.58 1014.35 1013.39 1012.54 1011.87 1011.44 1010.91 1010.59 1009.95 1010.24 1009.08 1008.83 1009.05 1009.15 1009.42 1009.65 1009.81
1027.27 1026.73 1026.33 1025.74 1025.09 1024.45 1023.60 1022.92 1022.40 1021.87 1021.33 1020.99 1021.07 1020.69 1020.62 1020.65 1020.17 1019.95 1019.48 1019.07 1018.65 1018.35 1018.12 1017.59 1017.38 1017.77 1017.32 1016.51 1015.69 1014.94 1014.22 1012.90 1011.89 1011.47 1011.06 1010.66 1009.50 1009.22 1008.56 1008.99 1008.90 1008.86 1008.93 1008.90 1008.96
1027.19 1026.73 1026.23 1025.70 1025.11 1024.39 1023.45 1022.55 1021.98 1021.35 1020.87 1020.81 1020.64 1020.71 1020.43 1020.03 1020.23 1019.95 1019.53 1018.94 1018.54 1018.13 1017.94 1017.24 1017.16 1017.66 1017.75 1017.31 1016.36 1015.90 1015.09 1013.91 1011.77 1010.97 1010.52 1010.71 1007.77 1008.10 1007.91 1008.47 1008.35 1008.20 1008.14 1008.40 1008.12
1027.17 1026.65 1026.17 1025.61 1024.97 1024.19 1023.21 1022.02 1021.19 1020.83 1020.75 1020.51 1020.69 1020.71 1020.65 1020.06 1020.32 1020.30 1019.63 1019.24 1018.56 1018.05 1017.41 1017.10 1017.07 1017.95 1018.21 1018.37 1017.92 1016.82 1015.74 1014.03 1012.50 1011.65 1011.16 1010.34 1008.13 1008.04 1007.88 1008.04 1007.81 1007.61 1007.48 1007.53 1007.42
1027.17 1026.71 1026.24 1025.68 1025.02 1024.23 1023.29 1021.79 1020.98 1021.03 1020.57 1020.08 1020.81 1021.28 1021.28 1021.58 1021.24 1020.60 1020.04 1019.83 1019.29 1018.57 1018.07 1017.75 1018.08 1018.94 1019.27 1019.30 1018.66 1017.60 1016.41 1014.68 1013.28 1012.03 1011.17 1010.07 1008.84 1008.22 1007.64 1007.64 1007.32 1007.23 1007.03 1006.79 1006.65
1027.43 1026.92 1026.38 1025.83 1025.23 1024.48 1023.69 1022.59 1023.12 1022.67 1023.09 1023.44 1023.28 1023.03 1022.32 1021.89 1021.21 1021.07 1020.49 1020.21 1020.14 1019.82 1020.03 1019.37 1020.10 1020.44 1020.52 1020.44 1019.64 1018.25 1016.97 1015.06 1013.99 1013.33 1012.47 1010.50 1009.18 1008.02 1007.25 1006.90 1006.60 1006.47 1006.55 1006.03 1005.53
1027.70 1027.13 1026.53 1025.92 1025.46 1024.86 1024.70 1024.72 1025.62 1026.30 1025.16 1023.59 1023.16 1022.87 1022.40 1021.91 1021.73 1021.39 1021.02 1021.00 1021.17 1021.35 1021.46 1021.37 1021.19 1020.99 1020.85 1020.26 1019.71 1018.93 1017.65 1015.77 1014.14 1013.45 1012.55 1010.18 1008.50 1007.59 1006.86 1005.66 1005.54 1005.45 1005.09 1004.96 1004.86
1027.94 1027.47 1026.89 1026.19 1025.50 1025.39 1025.44 1025.61 1025.57 1025.69 1025.88 1024.31 1023.20 1022.74 1022.55 1022.38 1022.08 1021.94 1021.64 1021.57 1021.93 1022.35 1022.78 1022.96 1022.26 1021.73 1021.31 1020.58 1020.35 1019.32 1018.46 1017.18 1016.19 1014.90 1013.18 1010.98 1008.04 1007.33 1006.18 1005.08 1004.40 1003.89 1003.63 1003.59 1003.54
1028.11 1027.67 1027.12 1026.44 1025.98 1025.87 1025.65 1025.60 1025.59 1025.73 1026.08 1024.67 1023.47 1023.07 1022.84 1022.12 1022.48 1022.08 1021.77 1022.34 1022.89 1023.00 1023.07 1023.10 1022.13 1022.26 1021.72 1020.90 1021.44 1019.24 1018.99 1017.77 1016.41 1015.97 1013.76 1012.68 1007.57 1006.23 1005.29 1004.36 1003.48 1002.58 1002.59 1002.47 1002.37
1028.15 1027.63 1027.21 1026.73 1026.80 1026.52 1026.19 1025.61 1025.56 1026.09 1026.35 1024.72 1023.65 1023.08 1023.28 1023.53 1023.45 1022.84 1022.36 1022.61 1023.18 1023.41 1023.78 1023.58 1022.59 1021.89 1021.52 1020.48 1020.90 1019.01 1018.91 1018.19 1016.86 1015.40 1014.59 1012.37 1010.58 1003.13 1004.89 1003.25 1001.05 1001.41 1001.52 1001.29 1001.34
1028.16 1027.73 1027.25 1027.03 1027.01 1026.59 1025.82 1025.65 1025.98 1027.00 1026.81 1025.22 1024.35 1024.40 1024.31 1024.12 1023.92 1023.59 1023.49 1023.38 1023.15 1023.48 1023.72 1023.49 1022.86 1021.89 1021.37 1020.50 1019.70 1019.31 1018.67 1017.97 1016.67 1015.31 1013.23 1009.49 1009.80 1002.95 1003.09 999.86 1001.45 1000.77 1000.48 1000.30 1000.17
1028.04 1027.54 1027.09 1026.93 1027.28 1026.50 1026.01 1026.41 1027.72 1027.82 1027.50 1026.64 1026.13 1025.83 1025.62 1025.39 1025.05 1024.93 1024.82 1024.59 1024.68 1024.45 1024.21 1023.59 1022.72 1021.61 1020.67 1020.02 1019.54 1019.91 1019.50 1017.59 1015.03 1013.44 1009.15 1008.79 1008.21 1002.84 1001.45 1000.81 1000.25 1000.22 999.52 999.06 998.84
1027.90 1027.34 1027.03 1027.23 1027.00 1026.64 1026.77 1027.80 1028.90 1029.06 1028.14 1027.46 1027.13 1026.75 1026.80 1026.55 1026.39 1026.15 1026.01 1025.82 1025.28 1025.42 1025.01 1023.96 1021.75 1021.63 1020.63 1021.13 1020.59 1019.18 1019.42 1018.46 1014.83 1012.66 1009.23 1008.19 1005.74 1000.96 1001.67 1000.99 1000.13 999.64 999.33 998.86 998.00
1027.97 1027.83 1027.50 1027.64 1027.11 1027.08 1028.20 1029.31 1030.05 1029.08 1028.55 1028.19 1028.07 1027.93 1027.93 1027.86 1027.83 1027.38 1027.15 1026.49 1026.02 1025.98 1026.43 1025.27 1023.61 1021.35 1020.25 1019.51 1019.73 1018.57 1017.55 1015.59 1014.58 1012.47 1010.36 1007.47 1003.87 1002.03 1001.34 1000.09 999.70 998.93 998.32 997.95 997.79
1028.78 1028.52 1028.22 1027.91 1027.52 1028.07 1029.46 1030.71 1030.13 1028.91 1028.40 1028.23 1028.81 1028.91 1029.16 1028.96 1028.96 1028.59 1027.97 1026.92 1026.51 1026.20 1026.27 1025.85 1023.99 1020.63 1018.52 1018.43 1016.61 1017.35 1016.18 1014.99 1013.83 1011.96 1009.42 1007.31 1003.99 1001.92 1000.16 998.91 999.06 998.42 998.11 997.44 997.27
1029.20 1029.56 1028.78 1028.22 1028.34 1029.56 1031.57 1031.34 1030.02 1028.94 1028.68 1028.89 1029.17 1029.48 1029.72 1029.81 1029.76 1029.61 1028.65 1027.51 1026.61 1026.13 1026.26 1025.78 1024.70 1020.62 1019.74 1018.85 1017.13 1016.32 1016.12 1015.27 1013.77 1012.01 1009.60 1007.80 1003.02 1000.58 999.81 999.58 999.20 998.48 998.58 998.23 997.83
1030.41 1030.24 1028.89 1028.60 1029.91 1030.78 1032.03 1031.13 1030.21 1029.35 1028.89 1028.77 1029.01 1029.61 1030.04 1030.22 1030.44 1030.14 1029.06 1028.14 1027.00 1026.75 1026.10 1025.51 1024.61 1022.36 1020.67 1017.72 1016.80 1016.90 1016.03 1015.12 1014.11 1012.36 1009.76 1007.60 1004.17 1000.30 999.98 999.66 999.50 999.46 999.28 999.02 998.75
1031.49 1031.07 1029.69 1029.53 1031.07 1032.45 1031.94 1031.48 1030.62 1029.76 1029.19 1029.09 1029.26 1029.52 1030.04 1030.45 1030.47 1029.71 1028.95 1027.52 1027.15 1027.06 1026.47 1025.41 1024.53 1023.73 1019.64 1017.78 1016.96 1016.93 1015.61 1015.15 1014.19 1012.97 1010.28 1007.77 1004.45 999.63 1000.85 1000.02 1000.10 1000.11 999.76 999.53 999.21
1032.05 1031.95 1031.03 1030.99 1031.64 1032.33 1032.36 1031.68 1031.00 1029.82 1029.49 1029.22 1029.20 1029.26 1029.79 1029.91 1029.62 1029.22 1028.53 1027.33 1026.57 1026.42 1025.86 1025.50 1025.09 1025.01 1023.92 1021.66 1019.88 1017.70 1015.80 1014.74 1014.08 1012.40 1009.84 1007.38 1004.87 1000.70 1001.01 1000.96 1000.76 1000.51 1000.28 1000.18 999.86
1032.50 1033.04 1032.49 1032.70 1032.58 1032.70 1032.56 1031.80 1031.01 1030.18 1029.38 1029.06 1029.11 1029.05 1029.40 1029.37 1029.14 1028.40 1027.44 1026.77 1025.43 1025.43 1025.44 1025.67 1024.53 1024.31 1022.99 1021.60 1019.79 1017.88 1015.58 1013.45 1012.55 1010.96 1010.00 1006.29 1004.41 1001.17 1002.15 1001.37 1000.94 1000.95 1000.91 1000.47 1000.25
1032.79 1033.19 1032.98 1033.00 1032.59 1032.61 1032.14 1031.27 1030.49 1029.46 1029.30 1028.77 1028.58 1028.31 1028.18 1028.15 1027.67 1027.14 1026.84 1026.22 1025.89 1024.35 1024.92 1025.25 1024.45 1023.86 1021.63 1020.67 1019.02 1017.18 1014.57 1012.92 1011.32 1009.87 1008.27 1006.41 1004.06 1001.75 1002.21 1002.20 1001.97 1001.41 1001.89 1001.21 1000.70
1032.49 1032.70 1032.82 1032.56 1032.59 1032.80 1031.75 1030.64 1029.79 1029.26 1028.30 1027.87 1027.66 1027.39 1026.92 1026.21 1025.99 1025.53 1025.34 1025.25 1025.05 1024.88 1024.04 1024.77 1024.46 1024.24 1022.56 1020.80 1018.75 1016.06 1013.78 1012.40 1011.14 1009.68 1008.79 1006.72 1003.38 1002.08 1002.21 1002.58 1003.43 1002.99 1003.08 1002.41 1001.58
Wind_Speed
20 20 20 20 20 20 20 20 21 21 22 23 24 25 26 26 26 5 9 8 12 21 19 9 7 7 4 4 3 3 2 5 6 7 8 10 4 5 2 3 4 6 3 8 13
20 21 21 20 20 20 21 21 21 22 23 24 25 25 27 25 5 10 5 10 20 21 11 10 10 12 4 3 3 5 5 9 8 5 4 6 0 4 6 6 2 6 6 11 12
19 19 20 20 21 22 21 20 22 22 23 24 25 26 28 20 1 3 11 18 20 16 9 7 6 3 3 3 5 6 7 5 8 8 3 5 8 3 2 5 5 4 6 7 12
19 20 21 21 20 21 21 22 22 22 23 23 23 24 25 1 4 4 16 17 16 9 9 8 9 4 3 4 6 7 8 8 4 6 7 5 3 7 4 9 5 4 17 10 12
20 20 21 21 21 22 22 22 22 22 21 21 21 19 7 7 6 9 15 12 8 7 10 7 5 6 5 8 10 9 6 9 11 10 8 6 8 8 8 9 9 2 13 15 13
20 21 21 21 22 23 24 23 23 23 21 19 16 15 3 6 6 9 15 15 9 7 6 6 5 7 7 5 4 8 14 15 7 9 7 7 13 6 8 9 10 7 11 14 17
20 20 21 22 23 24 25 25 24 23 19 15 11 3 2 3 7 11 11 9 12 9 8 5 3 3 8 6 6 9 9 11 12 6 7 7 15 10 16 7 12 13 10 14 16
19 20 21 23 24 25 26 25 23 21 13 9 9 1 1 3 6 12 7 5 8 8 6 9 7 3 3 7 10 7 6 5 5 7 8 12 23 7 16 10 18 17 13 11 16
19 21 22 23 24 26 26 28 21 8 11 13 2 1 4 3 12 8 9 14 10 6 7 10 5 4 3 3 5 3 7 11 14 11 9 12 15 15 14 11 14 15 16 12 13
20 21 23 24 25 24 25 24 11 8 11 1 8 4 8 7 7 8 8 9 8 10 7 7 3 4 3 2 5 5 8 10 12 5 9 16 19 15 8 9 14 11 13 11 13
21 21 22 23 24 22 15 6 9 9 10 5 7 3 4 9 5 6 6 7 8 6 8 6 6 3 11 11 17 17 20 26 19 18 21 21 18 16 17 12 12 10 10 15 17
21 22 22 24 23 17 7 7 4 5 7 7 4 4 6 4 3 12 6 8 9 8 12 7 5 12 19 15 17 15 18 19 18 12 14 21 24 22 16 14 14 16 13 11 7
21 21 22 24 20 6 4 7 4 3 1 6 2 3 4 3 2 13 5 5 5 8 9 5 13 12 17 21 18 17 17 18 20 19 23 21 27 18 12 9 8 12 15 13 15
19 21 21 23 7 7 3 5 5 2 5 3 2 2 7 8 3 13 5 4 7 10 7 4 8 17 19 22 16 25 12 19 19 13 13 12 18 19 11 17 18 20 18 15 14
22 22 21 17 3 4 6 6 6 4 6 7 3 2 4 6 7 5 3 5 6 9 1 6 17 20 21 24 15 27 19 21 21 20 16 17 16 22 13 24 31 19 19 20 19
21 22 20 6 4 5 6 7 4 8 3 4 4 5 9 7 6 6 6 7 8 4 7 8 9 8 14 17 19 18 19 23 23 14 16 27 18 13 20 32 13 19 17 17 20
21 23 12 2 3 7 5 4 7 7 5 5 5 6 7 4 7 7 6 8 3 7 12 14 4 18 9 18 10 13 15 9 8 13 23 14 16 24 8 11 21 20 18 21 20
24 21 5 3 4 5 4 8 9 6 4 5 5 9 2 7 5 8 8 6 6 5 11 7 21 11 11 12 17 24 11 8 11 11 21 12 16 19 15 22 29 25 22 16 13
20 4 4 4 5 4 6 7 7 2 2 4 7 3 5 5 2 6 5 5 4 6 2 5 16 29 24 22 14 3 8 15 14 24 16 8 16 25 24 27 21 22 22 19 13
5 4 3 3 5 5 7 2 0 4 4 3 2 4 3 5 4 5 4 5 10 6 3 7 17 18 22 19 11 17 12 6 6 9 11 8 16 11 11 24 23 29 21 20 17
4 5 4 2 4 6 4 6 3 5 7 4 2 3 3 3 1 5 5 8 5 14 9 8 4 26 8 5 19 13 9 7 9 8 6 13 10 7 15 4 5 4 7 7 7
3 4 3 3 5 1 1 4 5 4 2 5 4 4 4 4 3 2 5 5 9 7 9 3 6 10 25 31 20 15 8 9 5 9 7 8 22 3 8 6 6 5 6 7 7
3 3 4 3 3 4 6 4 3 2 2 3 3 3 1 3 5 4 5 8 8 2 5 6 2 12 26 8 6 12 13 14 11 9 13 11 16 30 8 1 7 7 8 6 7
3 5 4 2 1 2 2 5 3 2 5 3 5 3 2 5 5 6 7 8 6 6 20 7 4 7 15 21 21 20 24 21 14 8 16 13 19 25 20 13 8 8 8 6 6
2 4 4 4 5 3 4 3 11 9 6 3 5 4 6 6 3 7 6 6 13 10 3 2 12 11 17 21 24 23 25 26 19 19 11 16 15 24 11 8 4 5 7 7 6
3 2 4 4 5 1 6 4 13 11 3 8 4 12 6 7 11 14 11 15 10 17 8 3 9 18 23 18 16 21 27 18 17 13 11 17 20 3 6 6 12 11 9 8 5
2 2 3 5 2 2 5 6 13 13 12 11 11 15 16 17 11 13 13 13 12 16 20 9 3 4 10 12 19 8 11 16 17 13 17 15 14 5 3 14 11 11 10 11 11
Wind_Direction
16 12 7 6 3 1 360 360 356 353 351 348 346 344 340 337 330 351 41 350 348 340 336 308 327 315 268 245 227 29 57 241 231 213 252 295 7 328 213 110 23 10 102 132 123
10 4 2 1 0 356 353 351 351 349 346 343 343 342 335 334 315 67 312 348 356 344 341 341 328 334 323 241 254 140 174 225 212 216 274 284 164 306 7 353 336 52 69 114 128
7 4 359 355 351 350 349 348 345 342 341 339 340 339 330 331 289 51 350 352 346 340 330 309 261 270 287 294 243 214 204 244 279 286 263 287 314 307 12 296 217 161 184 150 145
6 4 1 353 349 345 344 342 339 335 334 334 335 336 328 271 79 27 351 349 339 338 352 343 336 346 281 273 277 269 245 238 269 288 306 277 263 298 203 236 283 190 166 164 174
4 1 360 353 349 345 341 337 334 333 330 330 331 337 350 24 31 316 348 336 340 359 14 4 346 1 1 315 327 281 268 261 266 258 254 282 252 234 255 269 291 217 163 175 179
1 358 356 351 348 343 338 333 327 327 326 326 327 333 8 78 298 346 4 353 10 4 355 19 334 315 268 272 278 308 308 293 283 293 294 270 267 182 252 235 261 249 192 183 182
358 358 353 346 349 341 336 330 327 323 321 325 323 305 59 204 3 2 -0 332 342 348 349 315 278 339 336 309 337 306 312 312 284 254 253 329 276 221 239 218 244 253 214 196 198
357 356 353 351 346 342 335 330 323 315 324 325 324 294 205 84 15 11 338 333 324 316 326 267 236 226 220 317 333 330 312 307 272 220 238 178 250 221 232 207 234 238 250 207 202
1 355 354 350 348 344 338 329 316 338 315 295 298 205 77 43 9 328 0 354 326 293 287 286 123 169 335 340 330 270 256 249 285 239 264 200 257 255 240 239 239 238 235 223 219
359 357 354 351 348 346 343 333 2 39 341 279 31 67 23 347 327 331 347 354 352 326 351 359 36 61 15 92 254 288 288 288 276 300 239 257 257 264 253 214 240 238 244 231 217
357 356 353 349 349 345 355 11 10 357 37 359 305 292 266 307 301 335 342 352 348 25 16 329 57 355 351 335 306 283 274 275 283 285 300 290 285 263 238 250 260 249 232 238 224
357 355 352 346 343 341 14 51 95 206 326 306 239 236 240 309 296 344 4 26 22 18 2 14 302 345 324 332 323 303 299 300 299 308 265 279 272 272 243 228 215 237 242 226 223
357 354 351 343 330 358 40 56 14 54 123 301 356 41 315 316 340 338 20 19 30 5 353 327 282 324 341 323 322 307 294 299 289 312 300 290 280 265 266 247 230 231 237 230 225
354 351 347 342 35 323 43 1 352 30 70 156 147 21 9 328 58 325 23 72 10 325 338 331 337 319 296 287 302 292 299 304 297 295 277 354 284 254 241 247 245 237 234 231 222
352 348 343 344 275 338 303 341 336 64 78 278 78 93 11 71 255 334 16 19 313 304 352 282 309 311 299 282 278 274 287 281 274 270 286 266 271 264 224 246 241 240 237 237 229
346 341 337 335 343 311 322 326 54 46 279 345 82 23 22 342 340 332 7 340 277 275 279 289 292 291 305 312 283 275 286 278 266 264 245 247 228 254 226 236 259 242 236 228 229
342 336 331 306 300 311 343 27 41 96 288 346 14 355 353 328 341 17 339 340 331 356 329 321 312 307 273 325 339 332 323 281 244 214 241 235 227 237 264 254 238 244 238 229 224
340 332 306 32 336 340 30 50 71 247 4 39 8 336 332 3 330 345 346 343 323 359 322 338 324 332 303 293 288 286 254 267 280 241 259 235 234 242 232 246 261 258 259 270 230
342 326 355 354 349 32 63 47 186 277 52 2 351 356 337 351 359 2 327 287 338 357 47 328 311 301 289 296 280 271 242 231 250 264 277 275 253 256 256 264 269 268 260 250 250
328 355 6 23 355 48 70 285 157 7 356 42 137 135 337 321 7 37 307 283 324 343 96 274 301 297 299 311 276 200 262 291 216 281 258 271 261 253 230 231 237 248 251 245 249
36 30 286 42 26 44 118 227 314 0 39 95 251 288 247 263 82 338 260 302 298 325 342 289 243 297 322 311 291 309 284 263 285 242 253 260 262 221 240 297 349 305 332 341 315
44 15 320 14 37 4 94 190 328 313 347 276 172 199 233 292 288 280 247 190 295 313 316 267 273 295 302 295 275 267 296 286 271 310 271 242 256 278 30 63 51 358 334 327 321
5 283 326 37 80 335 322 315 239 279 268 335 303 193 190 282 319 197 255 261 292 68 294 299 343 323 320 333 353 325 310 298 278 281 272 247 259 260 254 346 20 346 332 335 328
42 356 332 51 197 119 332 274 313 283 282 231 253 263 1 305 226 266 276 293 293 286 296 332 236 257 276 286 294 298 298 293 284 277 285 253 260 284 275 306 347 338 325 321 334
39 271 191 292 321 347 308 266 296 289 230 184 321 247 223 271 301 263 285 286 293 279 313 210 273 279 269 277 287 282 294 300 296 271 253 284 221 258 312 316 315 340 323 304 321
119 81 337 252 273 116 289 272 294 301 252 292 249 285 254 230 241 278 282 295 280 301 297 226 273 308 292 290 289 297 297 291 280 300 247 269 243 212 177 38 10 30 344 338 318
260 258 149 273 359 63 239 272 289 297 279 253 272 286 285 272 255 258 256 257 256 270 282 276 222 342 271 299 312 294 351 315 332 310 337 334 257 176 341 64 31 22 7 358 356